GEC74 EDDF-LSGG

Flight info

Callsign GEC74
Flight time N/A
Altitude 40000
Route LUSAR LUSAR2R/22
Aircraft B742/H-SDFHIRWXY/L

Departure

Time N/A
Airport Frankfurt Main Airport (EDDF)

Arrival

Time 2026-05-05 20:12
Airport Geneva International Airport (LSGG)
Time Latitude Longitude Altitude Speed Heading
2026-05-05 19:59 46.20221 5.59553 7985 ft 241 kts 72°
2026-05-05 19:59 46.20776 5.61864 7987 ft 241 kts 72°
2026-05-05 19:59 46.21327 5.64146 7986 ft 241 kts 72°
2026-05-05 19:59 46.21878 5.66423 7989 ft 242 kts 73°
2026-05-05 20:00 46.22431 5.68708 7989 ft 240 kts 73°
2026-05-05 20:00 46.22981 5.70983 7989 ft 241 kts 73°
2026-05-05 20:00 46.23533 5.73250 7989 ft 242 kts 73°
2026-05-05 20:00 46.24096 5.75546 7993 ft 242 kts 73°
2026-05-05 20:01 46.24657 5.77824 7992 ft 241 kts 73°
2026-05-05 20:01 46.25221 5.80114 7993 ft 241 kts 73°
2026-05-05 20:01 46.25779 5.82396 7992 ft 242 kts 73°
2026-05-05 20:01 46.26339 5.84681 7989 ft 242 kts 73°
2026-05-05 20:02 46.26906 5.86989 7990 ft 241 kts 73°
2026-05-05 20:02 46.27467 5.89266 7992 ft 242 kts 73°
2026-05-05 20:02 46.28032 5.91560 7992 ft 242 kts 73°
2026-05-05 20:02 46.28593 5.93840 7994 ft 242 kts 73°
2026-05-05 20:03 46.29265 5.96087 7998 ft 244 kts 60°
2026-05-05 20:03 46.30180 5.98168 7876 ft 249 kts 58°
2026-05-05 20:03 46.31130 6.00239 7662 ft 246 kts 58°
2026-05-05 20:03 46.32077 6.02301 7439 ft 243 kts 58°
2026-05-05 20:04 46.33002 6.04310 7223 ft 242 kts 58°
2026-05-05 20:04 46.33931 6.06338 7002 ft 240 kts 58°
2026-05-05 20:04 46.34848 6.08347 6782 ft 239 kts 58°
2026-05-05 20:04 46.35754 6.10334 6701 ft 232 kts 58°
2026-05-05 20:05 46.36650 6.12308 6929 ft 238 kts 58°
2026-05-05 20:05 46.37569 6.14327 6970 ft 241 kts 58°
2026-05-05 20:05 46.38490 6.16347 6964 ft 239 kts 58°
2026-05-05 20:05 46.39415 6.18376 6729 ft 246 kts 58°
2026-05-05 20:06 46.40350 6.20431 6344 ft 247 kts 58°
2026-05-05 20:06 46.41296 6.22518 5952 ft 246 kts 58°
2026-05-05 20:06 46.41923 6.24757 5546 ft 238 kts 89°
2026-05-05 20:06 46.41663 6.27024 5152 ft 230 kts 111°
2026-05-05 20:07 46.41132 6.29210 4746 ft 229 kts 112°
2026-05-05 20:07 46.40465 6.31257 4331 ft 223 kts 135°
2026-05-05 20:07 46.39183 6.32380 3922 ft 214 kts 173°
2026-05-05 20:07 46.37777 6.32192 3921 ft 200 kts 202°
2026-05-05 20:08 46.36709 6.30887 3965 ft 209 kts 241°
2026-05-05 20:08 46.36134 6.28989 3954 ft 207 kts 231°
2026-05-05 20:08 46.35081 6.27568 3972 ft 208 kts 223°
2026-05-05 20:08 46.34050 6.26045 3850 ft 211 kts 225°
2026-05-05 20:09 46.33035 6.24509 3588 ft 209 kts 225°
2026-05-05 20:09 46.32051 6.23041 3294 ft 198 kts 225°
2026-05-05 20:09 46.31132 6.21680 3072 ft 182 kts 225°
2026-05-05 20:09 46.30287 6.20430 2836 ft 170 kts 224°
2026-05-05 20:10 46.29481 6.19244 2684 ft 158 kts 224°
2026-05-05 20:10 46.28714 6.18114 2411 ft 157 kts 224°
2026-05-05 20:10 46.27956 6.16996 2214 ft 157 kts 224°
2026-05-05 20:10 46.27193 6.15875 2038 ft 154 kts 226°
2026-05-05 20:11 46.26454 6.14740 1771 ft 158 kts 224°
2026-05-05 20:11 46.25671 6.13629 1578 ft 157 kts 224°
2026-05-05 20:11 46.24909 6.12512 1374 ft 156 kts 223°
2026-05-05 20:11 46.24200 6.11480 1373 ft 129 kts 226°
2026-05-05 20:12 46.23668 6.10693 1379 ft 89 kts 226°
2026-05-05 20:12 46.23316 6.10177 1386 ft 55 kts 225°
2026-05-05 20:12 46.23115 6.09886 1394 ft 30 kts 225°
2026-05-05 20:12 46.22973 6.09673 1398 ft 27 kts 226°
2026-05-05 20:13 46.22844 6.09492 1402 ft 24 kts 224°
2026-05-05 20:13 46.22731 6.09329 1405 ft 20 kts 228°
2026-05-05 20:13 46.22641 6.09189 1407 ft 18 kts 221°
2026-05-05 20:13 46.22549 6.09202 1407 ft 15 kts 117°
2026-05-05 20:14 46.22558 6.09363 1402 ft 17 kts 69°
2026-05-05 20:14 46.22633 6.09503 1398 ft 19 kts 44°
2026-05-05 20:14 46.22734 6.09651 1397 ft 21 kts 46°
2026-05-05 20:14 46.22841 6.09806 1396 ft 22 kts 45°
2026-05-05 20:15 46.22951 6.09970 1392 ft 22 kts 44°
2026-05-05 20:15 46.23055 6.10121 1392 ft 20 kts 46°
2026-05-05 20:15 46.23150 6.10270 1387 ft 20 kts 47°
2026-05-05 20:15 46.23253 6.10423 1385 ft 20 kts 46°
2026-05-05 20:16 46.23347 6.10567 1385 ft 19 kts 45°
2026-05-05 20:16 46.23441 6.10691 1384 ft 17 kts 46°
2026-05-05 20:16 46.23527 6.10818 1382 ft 17 kts 45°
2026-05-05 20:16 46.23611 6.10940 1381 ft 16 kts 45°
2026-05-05 20:17 46.23696 6.11066 1378 ft 18 kts 46°
2026-05-05 20:17 46.23786 6.11200 1377 ft 15 kts 45°
2026-05-05 20:17 46.23823 6.11253 1376 ft 4 kts 45°
2026-05-05 20:17 46.23846 6.11287 1375 ft 4 kts 45°
2026-05-05 20:18 46.23867 6.11316 1375 ft 3 kts 46°
2026-05-05 20:18 46.23871 6.11335 1375 ft 1 kts 106°
2026-05-05 20:18 46.23869 6.11341 1375 ft 1 kts 127°
2026-05-05 20:18 46.23858 6.11356 1376 ft 0 kts 135°
2026-05-05 20:19 46.23853 6.11364 1376 ft 2 kts 134°
2026-05-05 20:19 46.23837 6.11387 1378 ft 1 kts 134°
2026-05-05 20:19 46.23832 6.11395 1378 ft 3 kts 134°
2026-05-05 20:19 46.23829 6.11399 1378 ft 0 kts 134°